Regional Weather Roundup
Issued by NWS Albany, NY

Home | Current Version | Previous Version | Text Only | Print | Product List | Glossary On
Versions: 1 2 3 4 5 6 7 8 9 10 11 12 13 14 15 16 17 18 19 20 21 22 23 24 25 26 27 28 29 30 31 32 33 34 35 36 37 38 39 40 41 42 43 44 45 46 47 48 49 50
000
ASUS41 KALY 021310
RWRALY

NEW YORK STATE HOURLY WEATHER ROUNDUP
NATIONAL WEATHER SERVICE ALBANY NY
900 AM EDT TUE JUN 02 2015

NOTE: "FAIR" INDICATES FEW OR NO CLOUDS BELOW 12,000 FEET WITH NO
SIGNIFICANT WEATHER AND/OR NO OBSTRUCTIONS TO VISIBILITY.

NYZ032-033-038>043-046>054-057>066-NYZ062>081-021400-
EAST


CITY           SKY/WX    TMP DP  RH WIND       PRES   REMARKS
ALBANY         CLOUDY    53  46  77 N6        30.18R
GLENS FALLS    CLOUDY    52  46  80 N7        30.19R
POUGHKEEPSIE   CLOUDY    51  47  86 NE6       30.16R
NEWBURGH       LGT RAIN  48  48 100 NE7       30.16R FOG
MONTGOMERY     LGT RAIN  50  48  93 NE7       30.16R
WHITE PLAINS   DRIZZLE   50  47  89 N3        30.13S FOG
ISLIP          DRIZZLE   50  48  93 N13       30.11R FOG
NEW YORK CITY  LGT RAIN  50  48  93 N10       30.14R FOG
CENTRAL PARK   CLOUDY    51  48  89 NE7       30.17R FOG
$$

NYZ005>009-017-018-044>046-055-056-021400-
CENTRAL


CITY           SKY/WX    TMP DP  RH WIND       PRES   REMARKS
FULTON         LGT RAIN  54  51  90 NW8       30.19R FOG
SYRACUSE       CLOUDY    53  51  93 N6        30.18R
ROME           CLOUDY    51  49  92 E6        30.19R
ELMIRA         CLOUDY    53  51  93 NE7       30.17R FOG
BINGHAMTON     CLOUDY    51  50  96 N8        30.14R FOG
MONTICELLO     CLOUDY    46  45  93 E7        30.15R
$$

NYZ026>034-041>043-021400-
NORTH


CITY           SKY/WX    TMP DP  RH WIND       PRES   REMARKS
WATERTOWN      CLOUDY    53  51  93 N9        30.19R FOG
FORT DRUM      NOT AVBL
MASSENA        CLOUDY    51  48  89 N7        30.20R
SARANAC LAKE   CLOUDY    47  46  97 S3        30.14S FOG
PLATTSBURGH    CLOUDY    51  47  86 SE6       30.19S
$$

NYZ001>004-010>016-019>021-021400-
WEST


CITY           SKY/WX    TMP DP  RH WIND       PRES   REMARKS
NIAGARA FALLS  PTSUNNY   54  47  77 NE13      30.21R
BUFFALO        PTSUNNY   53  46  77 NE10      30.20S
DUNKIRK        CLOUDY    53  48  83 NE9       30.20R
JAMESTOWN      CLOUDY    48  45  87 NE7       30.18R
WELLSVILLE     CLOUDY    48  46  93 N6        30.18R
ROCHESTER      DRIZZLE   52  49  89 N10       30.21R
PENN YAN       CLOUDY    52  48  86 N7        30.19R
$$

             KEY
       WCI = WIND CHILL INDEX
       VSB = VISIBILITY
       HX  = HEAT INDEX
$$


USA.gov is the U.S. government's official web portal to all federal, state and local government web resources and services.